ELEKTRO-L 5

Last updated on Thu Aug 13 2026 00:03:04 GMT+0000 (Coordinated Universal Time)

1 67756U 26028A 26223.89875381 -.00000114 00000+0 00000+0 0 9998 2 67756 0.1813 343.0428 0002358 167.7549 209.1967 1.00271447 1806
UTC large
Height (km)
Speed (km/s)
/
Latitude / Longitude
Inclination (degrees)
Orbital Period (minutes)
Azimuth
Elevation
Range (km)
Doppler Factor

Next 0 passes for location: London (51.5072 / 0.1276)

No passes found over London.
ELEKTRO-L 5